START_TIME,STEP,MOV.,M35,t_acc.,PL05,t_acc.,PL06,t_acc.,PL07,t_acc.
1981-08-29 00:00:24.570 ,6,0,0.,4.8,1.,4.8,1.,4.8,0.,4.8
1981-08-29 00:00:29.370 ,6,0,0.,4.8,1.,4.8,0.,4.8,0.,4.8
1981-08-29 00:00:34.170 ,6,0,0.,4.8,1.,4.8,0.,4.8,0.,4.8
1981-08-29 00:00:38.970 ,6,0,0.,4.8,2.,4.8,0.,4.8,0.,4.8
1981-08-29 00:00:43.770 ,6,0,0.,4.8,3.,4.8,0.,4.8,0.,4.8
1981-08-29 00:00:48.570 ,7,0,0.,4.8,2.,4.8,0.,4.8,0.,4.8
1981-08-29 00:00:53.370 ,7,0,0.,4.8,1.,4.8,0.,4.8,0.,4.8
1981-08-29 00:00:58.170 ,7,0,0.,4.8,0.,4.8,0.,4.8,1.,4.8
1981-08-29 00:01:02.970 ,7,0,0.,4.8,0.,4.8,0.,4.8,0.,4.8
1981-08-29 00:01:07.770 ,7,0,0.,4.8,0.,4.8,0.,4.8,0.,4.8
1981-08-29 00:01:12.570 ,7,0,0.,4.8,0.,4.8,0.,4.8,0.,4.8
1981-08-29 00:01:17.370 ,7,0,0.,4.8,0.,4.8,0.,4.8,0.,4.8
1981-08-29 00:01:22.170 ,7,0,0.,4.8,1.,4.8,0.,4.8,0.,4.8
1981-08-29 00:01:26.970 ,7,0,0.,4.8,1.,4.8,0.,4.8,0.,4.8
1981-08-29 00:01:31.770 ,7,0,0.,4.8,0.,4.8,0.,4.8,0.,4.8
1981-08-29 00:01:36.570 ,7,0,0.,4.8,1.,4.8,0.,4.8,0.,4.8
1981-08-29 00:01:41.370 ,7,0,0.,4.8,1.,4.8,0.,4.8,0.,4.8
1981-08-29 00:01:46.170 ,7,0,0.,4.8,0.,4.8,0.,4.8,0.,4.8
1981-08-29 00:01:50.970 ,7,0,0.,4.8,0.,4.8,0.,4.8,0.,4.8
1981-08-29 00:01:55.770 ,7,0,0.,4.8,0.,4.8,0.,4.8,0.,4.8
1981-08-29 00:02:00.570 ,6,0,0.,4.8,0.,4.8,0.,4.8,0.,4.8
1981-08-29 00:02:05.370 ,6,0,0.,4.8,0.,4.8,0.,4.8,0.,4.8
1981-08-29 00:02:10.170 ,6,0,0.,4.8,1.,4.8,1.,4.8,0.,4.8
1981-08-29 00:02:14.970 ,6,0,0.,4.8,3.,4.8,0.,4.8,0.,4.8
1981-08-29 00:02:19.770 ,6,0,0.,4.8,1.,4.8,1.,4.8,0.,4.8
1981-08-29 00:02:24.560 ,5,0,0.,4.8,1.,4.8,0.,4.8,0.,4.8
1981-08-29 00:02:29.360 ,5,0,0.,4.8,2.,4.8,0.,4.8,0.,4.8
1981-08-29 00:02:34.170 ,5,0,0.,4.8,1.,4.8,0.,4.8,0.,4.8
1981-08-29 00:02:38.960 ,5,0,0.,4.8,1.,4.8,1.,4.8,0.,4.8
1981-08-29 00:02:43.760 ,5,0,0.,4.8,4.,4.8,0.,4.8,0.,4.8
1981-08-29 00:02:48.570 ,4,0,0.,4.8,0.,4.8,0.,4.8,0.,4.8
1981-08-29 00:02:53.360 ,4,0,0.,4.8,0.,4.8,0.,4.8,0.,4.8
1981-08-29 00:02:58.170 ,4,0,0.,4.8,1.,4.8,1.,4.8,0.,4.8
1981-08-29 00:03:02.960 ,4,0,0.,4.8,1.,4.8,0.,4.8,0.,4.8
1981-08-29 00:03:07.770 ,4,0,0.,4.8,4.,4.8,0.,4.8,0.,4.8
1981-08-29 00:03:12.560 ,3,0,0.,4.8,1.,4.8,0.,4.8,0.,4.8
1981-08-29 00:03:17.360 ,3,0,0.,4.8,0.,4.8,1.,4.8,0.,4.8
1981-08-29 00:03:22.160 ,3,0,0.,4.8,0.,4.8,0.,4.8,1.,4.8
1981-08-29 00:03:26.960 ,3,0,0.,4.8,0.,4.8,0.,4.8,0.,4.8
1981-08-29 00:03:31.760 ,3,0,0.,4.8,2.,4.8,0.,4.8,0.,4.8
1981-08-29 00:03:36.570 ,2,0,0.,4.8,4.,4.8,0.,4.8,0.,4.8
1981-08-29 00:03:41.370 ,2,0,0.,4.8,3.,4.8,0.,4.8,0.,4.8
1981-08-29 00:03:46.170 ,2,0,0.,4.8,2.,4.8,1.,4.8,0.,4.8
1981-08-29 00:03:50.960 ,2,0,0.,4.8,0.,4.8,0.,4.8,0.,4.8
1981-08-29 00:03:55.760 ,2,0,0.,4.8,1.,4.8,1.,4.8,0.,4.8
1981-08-29 00:04:00.570 ,1,0,0.,4.8,0.,4.8,1.,4.8,0.,4.8
1981-08-29 00:04:05.370 ,1,0,0.,4.8,2.,4.8,0.,4.8,0.,4.8
1981-08-29 00:04:10.170 ,1,0,0.,4.8,3.,4.8,0.,4.8,0.,4.8
1981-08-29 00:04:14.970 ,1,0,0.,4.8,1.,4.8,0.,4.8,0.,4.8
1981-08-29 00:04:19.770 ,1,0,0.,4.8,2.,4.8,0.,4.8,0.,4.8
1981-08-29 00:04:24.570 ,0,0,0.,4.8,0.,4.8,0.,4.8,0.,4.8
1981-08-29 00:04:29.370 ,0,0,0.,4.8,1.,4.8,0.,4.8,0.,4.8
1981-08-29 00:04:34.170 ,0,0,0.,4.8,4.,4.8,0.,4.8,0.,4.8
1981-08-29 00:04:38.970 ,0,0,0.,4.8,1.,4.8,0.,4.8,0.,4.8
1981-08-29 00:04:43.770 ,0,0,0.,4.8,2.,4.8,1.,4.8,0.,4.8
1981-08-29 00:04:48.570 ,0,0,0.,4.8,4.,4.8,1.,4.8,1.,4.8
1981-08-29 00:04:53.370 ,0,0,0.,4.8,3.,4.8,1.,4.8,0.,4.8
1981-08-29 00:04:58.170 ,0,0,0.,4.8,1.,4.8,0.,4.8,0.,4.8
1981-08-29 00:05:02.970 ,0,0,0.,4.8,1.,4.8,0.,4.8,0.,4.8
1981-08-29 00:05:07.770 ,0,0,0.,4.8,3.,4.8,1.,4.8,0.,4.8
1981-08-29 00:05:12.570 ,1,0,0.,4.8,2.,4.8,0.,4.8,0.,4.8
1981-08-29 00:05:17.370 ,1,0,0.,4.8,3.,4.8,1.,4.8,0.,4.8
1981-08-29 00:05:22.170 ,1,0,0.,4.8,0.,4.8,1.,4.8,1.,4.8
1981-08-29 00:05:26.970 ,1,0,0.,4.8,4.,4.8,0.,4.8,0.,4.8
1981-08-29 00:05:31.770 ,1,0,0.,4.8,1.,4.8,0.,4.8,0.,4.8
1981-08-29 00:05:36.570 ,2,0,0.,4.8,1.,4.8,0.,4.8,0.,4.8
1981-08-29 00:05:41.370 ,2,0,0.,4.8,1.,4.8,0.,4.8,0.,4.8
1981-08-29 00:05:46.170 ,2,0,0.,4.8,4.,4.8,0.,4.8,0.,4.8
1981-08-29 00:05:50.970 ,2,0,0.,4.8,2.,4.8,0.,4.8,0.,4.8
1981-08-29 00:05:55.770 ,2,0,0.,4.8,1.,4.8,0.,4.8,0.,4.8
1981-08-29 00:06:00.570 ,3,0,0.,4.8,2.,4.8,0.,4.8,0.,4.8
1981-08-29 00:06:05.370 ,3,0,0.,4.8,4.,4.8,1.,4.8,0.,4.8
1981-08-29 00:06:10.170 ,3,0,0.,4.8,2.,4.8,0.,4.8,1.,4.8
1981-08-29 00:06:14.970 ,3,0,0.,4.8,2.,4.8,0.,4.8,0.,4.8
1981-08-29 00:06:19.770 ,3,0,0.,4.8,1.,4.8,0.,4.8,0.,4.8
1981-08-29 00:06:24.570 ,4,0,0.,4.8,0.,4.8,1.,4.8,0.,4.8
1981-08-29 00:06:29.370 ,4,0,0.,4.8,1.,4.8,0.,4.8,1.,4.8
1981-08-29 00:06:34.170 ,4,0,0.,4.8,3.,4.8,0.,4.8,0.,4.8
1981-08-29 00:06:38.970 ,4,0,0.,4.8,3.,4.8,0.,4.8,0.,4.8
1981-08-29 00:06:43.770 ,4,0,0.,4.8,1.,4.8,0.,4.8,0.,4.8
1981-08-29 00:06:48.570 ,5,0,0.,4.8,2.,4.8,1.,4.8,0.,4.8
1981-08-29 00:06:53.370 ,5,0,0.,4.8,3.,4.8,0.,4.8,0.,4.8
1981-08-29 00:06:58.170 ,5,0,0.,4.8,1.,4.8,1.,4.8,0.,4.8
1981-08-29 00:07:02.970 ,5,0,0.,4.8,1.,4.8,0.,4.8,0.,4.8
1981-08-29 00:07:07.770 ,5,0,0.,4.8,2.,4.8,0.,4.8,0.,4.8
1981-08-29 00:07:12.570 ,6,0,0.,4.8,5.,4.8,0.,4.8,0.,4.8
1981-08-29 00:07:17.370 ,6,0,0.,4.8,4.,4.8,0.,4.8,0.,4.8
1981-08-29 00:07:22.170 ,6,0,0.,4.8,1.,4.8,0.,4.8,0.,4.8
1981-08-29 00:07:26.970 ,6,0,0.,4.8,0.,4.8,0.,4.8,0.,4.8
1981-08-29 00:07:31.770 ,6,0,0.,4.8,2.,4.8,0.,4.8,0.,4.8
1981-08-29 00:07:36.570 ,7,0,0.,4.8,3.,4.8,0.,4.8,0.,4.8
1981-08-29 00:07:41.370 ,7,0,0.,4.8,1.,4.8,0.,4.8,1.,4.8
1981-08-29 00:07:46.170 ,7,0,0.,4.8,1.,4.8,0.,4.8,0.,4.8
1981-08-29 00:07:50.970 ,7,0,0.,4.8,1.,4.8,0.,4.8,0.,4.8
1981-08-29 00:07:55.770 ,7,0,0.,4.8,0.,4.8,0.,4.8,0.,4.8
1981-08-29 00:08:00.570 ,7,0,0.,4.8,3.,4.8,1.,4.8,0.,4.8
1981-08-29 00:08:05.370 ,7,0,0.,4.8,0.,4.8,0.,4.8,1.,4.8
1981-08-29 00:08:10.170 ,7,0,0.,4.8,0.,4.8,0.,4.8,0.,4.8
1981-08-29 00:08:14.970 ,7,0,0.,4.8,1.,4.8,0.,4.8,0.,4.8
1981-08-29 00:08:19.770 ,7,0,0.,4.8,1.,4.8,0.,4.8,0.,4.8
1981-08-29 00:08:24.570 ,7,0,0.,4.8,1.,4.8,0.,4.8,0.,4.8
1981-08-29 00:08:29.370 ,7,0,0.,4.8,0.,4.8,0.,4.8,1.,4.8
1981-08-29 00:08:34.170 ,7,0,0.,4.8,0.,4.8,0.,4.8,0.,4.8
1981-08-29 00:08:38.970 ,7,0,0.,4.8,0.,4.8,0.,4.8,2.,4.8
1981-08-29 00:08:43.770 ,7,0,0.,4.8,0.,4.8,0.,4.8,0.,4.8
1981-08-29 00:08:48.570 ,6,0,0.,4.8,2.,4.8,1.,4.8,0.,4.8
1981-08-29 00:08:53.360 ,6,0,0.,4.8,0.,4.8,0.,4.8,0.,4.8
1981-08-29 00:08:58.160 ,6,0,0.,4.8,3.,4.8,0.,4.8,0.,4.8
1981-08-29 00:09:02.960 ,6,0,0.,4.8,2.,4.8,0.,4.8,0.,4.8
1981-08-29 00:09:07.770 ,6,0,0.,4.8,3.,4.8,1.,4.8,0.,4.8
1981-08-29 00:09:12.570 ,6,0,0.,4.8,2.,4.8,0.,4.8,2.,4.8
1981-08-29 00:09:17.360 ,6,0,0.,4.8,2.,4.8,0.,4.8,0.,4.8
1981-08-29 00:09:22.160 ,6,0,0.,4.8,3.,4.8,0.,4.8,2.,4.8
1981-08-29 00:09:26.960 ,6,0,0.,4.8,1.,4.8,0.,4.8,0.,4.8
1981-08-29 00:09:31.770 ,6,0,0.,4.8,4.,4.8,0.,4.8,0.,4.8
1981-08-29 00:09:36.570 ,5,0,0.,4.8,0.,4.8,0.,4.8,0.,4.8
1981-08-29 00:09:41.360 ,5,0,0.,4.8,0.,4.8,0.,4.8,1.,4.8
1981-08-29 00:09:46.160 ,5,0,0.,4.8,1.,4.8,0.,4.8,0.,4.8
1981-08-29 00:09:50.960 ,5,0,0.,4.8,2.,4.8,0.,4.8,0.,4.8
1981-08-29 00:09:55.770 ,5,0,0.,4.8,2.,4.8,0.,4.8,0.,4.8
1981-08-29 00:10:00.570 ,5,0,0.,4.8,2.,4.8,0.,4.8,0.,4.8
1981-08-29 00:10:05.360 ,5,0,0.,4.8,0.,4.8,0.,4.8,0.,4.8
1981-08-29 00:10:10.160 ,5,0,0.,4.8,1.,4.8,1.,4.8,0.,4.8
1981-08-29 00:10:14.960 ,5,0,0.,4.8,2.,4.8,0.,4.8,0.,4.8
1981-08-29 00:10:19.770 ,5,0,0.,4.8,4.,4.8,0.,4.8,0.,4.8
1981-08-29 00:10:24.570 ,4,0,0.,4.8,0.,4.8,0.,4.8,0.,4.8
1981-08-29 00:10:29.360 ,4,0,0.,4.8,3.,4.8,1.,4.8,0.,4.8
1981-08-29 00:10:34.160 ,4,0,0.,4.8,1.,4.8,0.,4.8,0.,4.8
1981-08-29 00:10:38.960 ,4,0,0.,4.8,2.,4.8,0.,4.8,0.,4.8
1981-08-29 00:10:43.770 ,4,0,0.,4.8,1.,4.8,1.,4.8,0.,4.8
1981-08-29 00:10:48.570 ,4,0,0.,4.8,2.,4.8,0.,4.8,0.,4.8
1981-08-29 00:10:53.360 ,4,0,0.,4.8,1.,4.8,3.,4.8,0.,4.8
1981-08-29 00:10:58.160 ,4,0,0.,4.8,3.,4.8,0.,4.8,0.,4.8
1981-08-29 00:11:02.960 ,4,0,0.,4.8,1.,4.8,0.,4.8,0.,4.8
1981-08-29 00:11:07.770 ,4,0,0.,4.8,1.,4.8,1.,4.8,0.,4.8
1981-08-29 00:11:12.570 ,3,0,0.,4.8,1.,4.8,0.,4.8,0.,4.8
1981-08-29 00:11:17.360 ,3,0,0.,4.8,0.,4.8,0.,4.8,0.,4.8
1981-08-29 00:11:22.160 ,3,0,0.,4.8,1.,4.8,1.,4.8,0.,4.8
1981-08-29 00:11:26.960 ,3,0,0.,4.8,4.,4.8,0.,4.8,2.,4.8
1981-08-29 00:11:31.770 ,3,0,0.,4.8,1.,4.8,0.,4.8,0.,4.8
1981-08-29 00:11:36.570 ,3,0,0.,4.8,2.,4.8,0.,4.8,1.,4.8
1981-08-29 00:11:41.360 ,3,0,0.,4.8,0.,4.8,1.,4.8,0.,4.8
1981-08-29 00:11:46.160 ,3,0,0.,4.8,4.,4.8,0.,4.8,0.,4.8
1981-08-29 00:11:50.960 ,3,0,0.,4.8,3.,4.8,0.,4.8,0.,4.8
1981-08-29 00:11:55.770 ,3,0,0.,4.8,1.,4.8,0.,4.8,0.,4.8
1981-08-29 00:12:00.570 ,2,0,0.,4.8,0.,4.8,0.,4.8,0.,4.8
1981-08-29 00:12:05.360 ,2,0,0.,4.8,5.,4.8,0.,4.8,0.,4.8
1981-08-29 00:12:10.160 ,2,0,0.,4.8,4.,4.8,0.,4.8,1.,4.8
1981-08-29 00:12:14.960 ,2,0,0.,4.8,0.,4.8,0.,4.8,0.,4.8
1981-08-29 00:12:19.770 ,2,0,0.,4.8,1.,4.8,0.,4.8,0.,4.8
1981-08-29 00:12:24.570 ,2,0,0.,4.8,3.,4.8,0.,4.8,0.,4.8
1981-08-29 00:12:29.360 ,2,0,0.,4.8,1.,4.8,0.,4.8,0.,4.8
1981-08-29 00:12:34.160 ,2,0,0.,4.8,2.,4.8,0.,4.8,0.,4.8
1981-08-29 00:12:38.960 ,2,0,0.,4.8,0.,4.8,0.,4.8,0.,4.8
1981-08-29 00:12:43.770 ,2,0,0.,4.8,0.,4.8,0.,4.8,1.,4.8
1981-08-29 00:12:48.570 ,1,0,0.,4.8,2.,4.8,0.,4.8,0.,4.8
1981-08-29 00:12:53.360 ,1,0,0.,4.8,2.,4.8,0.,4.8,0.,4.8
1981-08-29 00:12:58.160 ,1,0,0.,4.8,3.,4.8,0.,4.8,1.,4.8
1981-08-29 00:13:02.960 ,1,0,0.,4.8,2.,4.8,1.,4.8,0.,4.8
1981-08-29 00:13:07.770 ,1,0,0.,4.8,1.,4.8,0.,4.8,0.,4.8
1981-08-29 00:13:12.570 ,1,0,0.,4.8,0.,4.8,0.,4.8,1.,4.8
1981-08-29 00:13:17.360 ,1,0,0.,4.8,1.,4.8,0.,4.8,0.,4.8
1981-08-29 00:13:22.160 ,1,0,0.,4.8,1.,4.8,0.,4.8,0.,4.8
1981-08-29 00:13:26.960 ,1,0,0.,4.8,1.,4.8,1.,4.8,0.,4.8
1981-08-29 00:13:31.770 ,1,0,0.,4.8,2.,4.8,0.,4.8,0.,4.8
1981-08-29 00:13:36.560 ,0,0,0.,4.8,3.,4.8,0.,4.8,0.,4.8
1981-08-29 00:13:41.360 ,0,0,0.,4.8,3.,4.8,0.,4.8,0.,4.8
1981-08-29 00:13:46.160 ,0,0,0.,4.8,0.,4.8,0.,4.8,0.,4.8
1981-08-29 00:13:50.960 ,0,0,0.,4.8,1.,4.8,0.,4.8,0.,4.8
1981-08-29 00:13:55.760 ,0,0,0.,4.8,2.,4.8,0.,4.8,0.,4.8
1981-08-29 00:14:00.560 ,0,0,0.,4.8,3.,4.8,0.,4.8,0.,4.8
1981-08-29 00:14:05.360 ,0,0,0.,4.8,3.,4.8,0.,4.8,0.,4.8
1981-08-29 00:14:10.160 ,0,0,0.,4.8,1.,4.8,0.,4.8,0.,4.8
1981-08-29 00:14:14.960 ,0,0,0.,4.8,0.,4.8,0.,4.8,0.,4.8
1981-08-29 00:14:19.760 ,0,0,0.,4.8,4.,4.8,0.,4.8,0.,4.8
1981-08-29 00:14:24.560 ,0,0,0.,4.8,1.,4.8,1.,4.8,0.,4.8
1981-08-29 00:14:29.360 ,0,0,0.,4.8,2.,4.8,0.,4.8,1.,4.8
1981-08-29 00:14:34.160 ,0,0,0.,4.8,2.,4.8,0.,4.8,1.,4.8
1981-08-29 00:14:38.960 ,0,0,0.,4.8,2.,4.8,0.,4.8,0.,4.8
1981-08-29 00:14:43.760 ,0,0,0.,4.8,0.,4.8,0.,4.8,1.,4.8
1981-08-29 00:14:48.560 ,0,0,0.,4.8,2.,4.8,0.,4.8,1.,4.8
1981-08-29 00:14:53.360 ,0,0,0.,4.8,2.,4.8,0.,4.8,0.,4.8
1981-08-29 00:14:58.160 ,0,0,0.,4.8,2.,4.8,0.,4.8,0.,4.8
1981-08-29 00:15:02.960 ,0,0,0.,4.8,4.,4.8,0.,4.8,0.,4.8
1981-08-29 00:15:07.760 ,0,0,0.,4.8,2.,4.8,0.,4.8,0.,4.8
1981-08-29 00:15:12.560 ,1,0,0.,4.8,1.,4.8,0.,4.8,0.,4.8
1981-08-29 00:15:17.360 ,1,0,0.,4.8,2.,4.8,1.,4.8,0.,4.8
1981-08-29 00:15:22.160 ,1,0,0.,4.8,5.,4.8,0.,4.8,0.,4.8
1981-08-29 00:15:26.960 ,1,0,0.,4.8,1.,4.8,2.,4.8,0.,4.8
1981-08-29 00:15:31.760 ,1,0,0.,4.8,0.,4.8,0.,4.8,0.,4.8
1981-08-29 00:15:36.560 ,1,0,0.,4.8,2.,4.8,0.,4.8,0.,4.8
1981-08-29 00:15:41.360 ,1,0,0.,4.8,1.,4.8,1.,4.8,0.,4.8
1981-08-29 00:15:46.160 ,1,0,0.,4.8,1.,4.8,0.,4.8,0.,4.8
1981-08-29 00:15:50.960 ,1,0,0.,4.8,0.,4.8,1.,4.8,0.,4.8
1981-08-29 00:15:55.760 ,1,0,0.,4.8,1.,4.8,1.,4.8,0.,4.8
1981-08-29 00:16:00.560 ,2,0,0.,4.8,3.,4.8,0.,4.8,0.,4.8
1981-08-29 00:16:05.360 ,2,0,0.,4.8,0.,4.8,3.,4.8,0.,4.8
1981-08-29 00:16:10.160 ,2,0,0.,4.8,4.,4.8,0.,4.8,0.,4.8
1981-08-29 00:16:14.960 ,2,0,0.,4.8,1.,4.8,0.,4.8,0.,4.8
1981-08-29 00:16:19.760 ,2,0,0.,4.8,0.,4.8,1.,4.8,0.,4.8
1981-08-29 00:16:24.560 ,0,0,0.,4.8,0.,4.8,0.,4.8,0.,4.8
1981-08-29 00:16:29.360 ,0,0,0.,4.8,0.,4.8,1.,4.8,0.,4.8
1981-08-29 00:16:34.160 ,0,0,0.,4.8,0.,4.8,1.,4.8,0.,4.8
1981-08-29 00:16:38.960 ,0,0,0.,4.8,1.,4.8,1.,4.8,0.,4.8
1981-08-29 00:16:43.760 ,0,0,0.,4.8,6.,4.8,0.,4.8,1.,4.8
1981-08-29 00:16:48.560 ,3,0,0.,4.8,0.,4.8,0.,4.8,1.,4.8
1981-08-29 00:16:53.360 ,3,0,0.,4.8,1.,4.8,0.,4.8,0.,4.8
1981-08-29 00:16:58.160 ,3,0,0.,4.8,2.,4.8,0.,4.8,0.,4.8
1981-08-29 00:17:02.960 ,3,0,0.,4.8,0.,4.8,0.,4.8,0.,4.8
1981-08-29 00:17:07.760 ,3,0,0.,4.8,2.,4.8,0.,4.8,0.,4.8
1981-08-29 00:17:12.560 ,3,0,0.,4.8,3.,4.8,0.,4.8,0.,4.8
1981-08-29 00:17:17.360 ,3,0,0.,4.8,0.,4.8,0.,4.8,0.,4.8
1981-08-29 00:17:22.160 ,3,0,0.,4.8,2.,4.8,0.,4.8,0.,4.8
1981-08-29 00:17:26.960 ,3,0,0.,4.8,2.,4.8,1.,4.8,0.,4.8
1981-08-29 00:17:31.760 ,3,0,0.,4.8,0.,4.8,0.,4.8,0.,4.8
1981-08-29 00:17:36.560 ,4,0,0.,4.8,0.,4.8,0.,4.8,0.,4.8
1981-08-29 00:17:41.360 ,4,0,0.,4.8,2.,4.8,0.,4.8,0.,4.8
1981-08-29 00:17:46.160 ,4,0,0.,4.8,2.,4.8,0.,4.8,0.,4.8
1981-08-29 00:17:50.960 ,4,0,0.,4.8,1.,4.8,0.,4.8,0.,4.8
1981-08-29 00:17:55.760 ,4,0,0.,4.8,2.,4.8,0.,4.8,0.,4.8
1981-08-29 00:18:00.560 ,4,0,0.,4.8,1.,4.8,1.,4.8,0.,4.8
1981-08-29 00:18:05.360 ,4,0,0.,4.8,1.,4.8,0.,4.8,0.,4.8
1981-08-29 00:18:10.160 ,4,0,0.,4.8,1.,4.8,0.,4.8,0.,4.8
1981-08-29 00:18:14.960 ,4,0,0.,4.8,3.,4.8,0.,4.8,0.,4.8
1981-08-29 00:18:19.760 ,4,0,0.,4.8,1.,4.8,1.,4.8,0.,4.8
1981-08-29 00:18:24.560 ,5,0,0.,4.8,2.,4.8,0.,4.8,0.,4.8
1981-08-29 00:18:29.360 ,5,0,0.,4.8,1.,4.8,0.,4.8,0.,4.8
1981-08-29 00:18:34.160 ,5,0,0.,4.8,1.,4.8,0.,4.8,0.,4.8
1981-08-29 00:18:38.960 ,5,0,0.,4.8,1.,4.8,0.,4.8,0.,4.8
1981-08-29 00:18:43.760 ,5,0,0.,4.8,1.,4.8,0.,4.8,0.,4.8
1981-08-29 00:18:48.560 ,5,0,0.,4.8,2.,4.8,0.,4.8,0.,4.8
1981-08-29 00:18:53.360 ,5,0,0.,4.8,0.,4.8,2.,4.8,0.,4.8
1981-08-29 00:18:58.160 ,5,0,0.,4.8,3.,4.8,0.,4.8,0.,4.8
1981-08-29 00:19:02.960 ,5,0,0.,4.8,3.,4.8,0.,4.8,0.,4.8
1981-08-29 00:19:07.760 ,5,0,0.,4.8,3.,4.8,2.,4.8,1.,4.8
1981-08-29 00:19:12.560 ,6,0,0.,4.8,3.,4.8,0.,4.8,0.,4.8
1981-08-29 00:19:17.360 ,6,0,0.,4.8,1.,4.8,0.,4.8,0.,4.8
1981-08-29 00:19:22.160 ,6,0,0.,4.8,2.,4.8,0.,4.8,0.,4.8
1981-08-29 00:19:26.960 ,6,0,0.,4.8,0.,4.8,0.,4.8,0.,4.8
1981-08-29 00:19:31.760 ,6,0,0.,4.8,3.,4.8,1.,4.8,1.,4.8
1981-08-29 00:19:36.560 ,6,0,0.,4.8,1.,4.8,0.,4.8,0.,4.8
1981-08-29 00:19:41.360 ,6,0,0.,4.8,2.,4.8,0.,4.8,0.,4.8
1981-08-29 00:19:46.160 ,6,0,0.,4.8,4.,4.8,1.,4.8,0.,4.8
1981-08-29 00:19:50.960 ,6,0,0.,4.8,0.,4.8,0.,4.8,0.,4.8
1981-08-29 00:19:55.760 ,6,0,0.,4.8,2.,4.8,1.,4.8,1.,4.8
1981-08-29 00:20:00.560 ,7,0,0.,4.8,0.,4.8,1.,4.8,0.,4.8
1981-08-29 00:20:05.360 ,7,0,0.,4.8,1.,4.8,1.,4.8,0.,4.8
1981-08-29 00:20:10.160 ,7,0,0.,4.8,0.,4.8,0.,4.8,0.,4.8
1981-08-29 00:20:14.960 ,7,0,0.,4.8,0.,4.8,0.,4.8,0.,4.8
1981-08-29 00:20:19.760 ,7,0,0.,4.8,0.,4.8,0.,4.8,0.,4.8
1981-08-29 00:20:24.560 ,7,0,0.,4.8,0.,4.8,0.,4.8,0.,4.8
1981-08-29 00:20:29.360 ,7,0,0.,4.8,1.,4.8,0.,4.8,0.,4.8
1981-08-29 00:20:34.160 ,7,0,0.,4.8,0.,4.8,0.,4.8,1.,4.8
1981-08-29 00:20:38.960 ,7,0,0.,4.8,1.,4.8,1.,4.8,0.,4.8
1981-08-29 00:20:43.760 ,7,0,0.,4.8,0.,4.8,0.,4.8,1.,4.8
1981-08-29 00:20:48.560 ,7,0,0.,4.8,1.,4.8,1.,4.8,0.,4.8
1981-08-29 00:20:53.360 ,7,0,0.,4.8,0.,4.8,0.,4.8,0.,4.8
1981-08-29 00:20:58.160 ,7,0,0.,4.8,0.,4.8,0.,4.8,0.,4.8
1981-08-29 00:21:02.960 ,7,0,0.,4.8,0.,4.8,0.,4.8,0.,4.8
1981-08-29 00:21:07.760 ,7,0,0.,4.8,0.,4.8,0.,4.8,0.,4.8
1981-08-29 00:21:12.560 ,6,0,0.,4.8,0.,4.8,0.,4.8,0.,4.8
1981-08-29 00:21:17.360 ,6,0,0.,4.8,0.,4.8,0.,4.8,0.,4.8
1981-08-29 00:21:22.160 ,6,0,0.,4.8,0.,4.8,0.,4.8,0.,4.8
1981-08-29 00:21:26.960 ,6,0,0.,4.8,0.,4.8,0.,4.8,1.,4.8
1981-08-29 00:21:31.760 ,6,0,0.,4.8,1.,4.8,0.,4.8,0.,4.8
1981-08-29 00:21:36.560 ,5,0,0.,4.8,3.,4.8,0.,4.8,0.,4.8
1981-08-29 00:21:41.360 ,5,0,0.,4.8,1.,4.8,0.,4.8,0.,4.8
1981-08-29 00:21:46.160 ,5,0,0.,4.8,2.,4.8,1.,4.8,0.,4.8
1981-08-29 00:21:50.960 ,5,0,0.,4.8,1.,4.8,0.,4.8,0.,4.8
1981-08-29 00:21:55.760 ,5,0,0.,4.8,2.,4.8,0.,4.8,0.,4.8
1981-08-29 00:22:00.560 ,4,0,0.,4.8,1.,4.8,0.,4.8,0.,4.8
1981-08-29 00:22:05.360 ,4,0,0.,4.8,3.,4.8,0.,4.8,1.,4.8
1981-08-29 00:22:10.160 ,4,0,0.,4.8,2.,4.8,0.,4.8,0.,4.8
1981-08-29 00:22:14.960 ,4,0,0.,4.8,0.,4.8,0.,4.8,0.,4.8
1981-08-29 00:22:19.760 ,4,0,0.,4.8,2.,4.8,1.,4.8,0.,4.8
1981-08-29 00:22:24.560 ,3,0,0.,4.8,1.,4.8,1.,4.8,0.,4.8
1981-08-29 00:22:29.360 ,3,0,0.,4.8,2.,4.8,0.,4.8,0.,4.8
1981-08-29 00:22:34.160 ,3,0,0.,4.8,2.,4.8,0.,4.8,1.,4.8
1981-08-29 00:22:38.960 ,3,0,0.,4.8,1.,4.8,0.,4.8,0.,4.8
1981-08-29 00:22:43.760 ,3,0,0.,4.8,3.,4.8,0.,4.8,0.,4.8
1981-08-29 00:22:48.560 ,2,0,0.,4.8,0.,4.8,0.,4.8,0.,4.8
1981-08-29 00:22:53.360 ,2,0,0.,4.8,2.,4.8,0.,4.8,0.,4.8
1981-08-29 00:22:58.160 ,2,0,0.,4.8,2.,4.8,1.,4.8,0.,4.8
1981-08-29 00:23:02.960 ,2,0,0.,4.8,1.,4.8,0.,4.8,0.,4.8
1981-08-29 00:23:07.760 ,2,0,0.,4.8,1.,4.8,0.,4.8,0.,4.8
1981-08-29 00:23:12.560 ,1,0,0.,4.8,0.,4.8,0.,4.8,0.,4.8
1981-08-29 00:23:17.360 ,1,0,0.,4.8,0.,4.8,0.,4.8,0.,4.8
1981-08-29 00:23:22.160 ,1,0,0.,4.8,2.,4.8,0.,4.8,0.,4.8
1981-08-29 00:23:26.960 ,1,0,0.,4.8,3.,4.8,0.,4.8,0.,4.8
1981-08-29 00:23:31.760 ,1,0,0.,4.8,3.,4.8,1.,4.8,0.,4.8
1981-08-29 00:23:36.560 ,0,0,0.,4.8,3.,4.8,0.,4.8,0.,4.8
1981-08-29 00:23:41.360 ,0,0,0.,4.8,1.,4.8,1.,4.8,0.,4.8
1981-08-29 00:23:46.160 ,0,0,0.,4.8,1.,4.8,0.,4.8,0.,4.8
1981-08-29 00:23:50.960 ,0,0,0.,4.8,0.,4.8,0.,4.8,1.,4.8
1981-08-29 00:23:55.760 ,0,0,0.,4.8,1.,4.8,0.,4.8,0.,4.8
1981-08-29 00:24:00.560 ,0,0,0.,4.8,2.,4.8,1.,4.8,0.,4.8
1981-08-29 00:24:05.360 ,0,0,0.,4.8,4.,4.8,0.,4.8,0.,4.8
1981-08-29 00:24:10.160 ,0,0,0.,4.8,3.,4.8,0.,4.8,0.,4.8
1981-08-29 00:24:14.960 ,0,0,0.,4.8,0.,4.8,0.,4.8,0.,4.8
1981-08-29 00:24:19.760 ,0,0,0.,4.8,0.,4.8,0.,4.8,0.,4.8
1981-08-29 00:24:24.560 ,1,0,0.,4.8,2.,4.8,0.,4.8,0.,4.8
1981-08-29 00:24:29.360 ,1,0,0.,4.8,2.,4.8,1.,4.8,0.,4.8
1981-08-29 00:24:34.160 ,1,0,0.,4.8,3.,4.8,0.,4.8,0.,4.8
1981-08-29 00:24:38.960 ,1,0,0.,4.8,3.,4.8,0.,4.8,0.,4.8
1981-08-29 00:24:43.760 ,1,0,0.,4.8,1.,4.8,0.,4.8,0.,4.8
1981-08-29 00:24:48.560 ,2,0,0.,4.8,3.,4.8,0.,4.8,1.,4.8
1981-08-29 00:24:53.360 ,2,0,0.,4.8,2.,4.8,0.,4.8,0.,4.8
1981-08-29 00:24:58.160 ,2,0,0.,4.8,2.,4.8,0.,4.8,0.,4.8
1981-08-29 00:25:02.960 ,2,0,0.,4.8,1.,4.8,0.,4.8,0.,4.8
1981-08-29 00:25:07.760 ,2,0,0.,4.8,0.,4.8,1.,4.8,0.,4.8
1981-08-29 00:25:12.560 ,3,0,0.,4.8,0.,4.8,0.,4.8,0.,4.8
1981-08-29 00:25:17.360 ,3,0,0.,4.8,0.,4.8,0.,4.8,0.,4.8
1981-08-29 00:25:22.160 ,3,0,0.,4.8,1.,4.8,0.,4.8,0.,4.8
1981-08-29 00:25:26.960 ,3,0,0.,4.8,1.,4.8,0.,4.8,0.,4.8
1981-08-29 00:25:31.760 ,3,0,0.,4.8,2.,4.8,0.,4.8,0.,4.8
1981-08-29 00:25:36.560 ,4,0,0.,4.8,0.,4.8,0.,4.8,0.,4.8
1981-08-29 00:25:41.360 ,4,0,0.,4.8,0.,4.8,0.,4.8,0.,4.8
1981-08-29 00:25:46.160 ,4,0,0.,4.8,0.,4.8,1.,4.8,0.,4.8
1981-08-29 00:25:50.960 ,4,0,0.,4.8,1.,4.8,0.,4.8,0.,4.8
1981-08-29 00:25:55.760 ,4,0,0.,4.8,1.,4.8,1.,4.8,0.,4.8
1981-08-29 00:26:00.560 ,5,0,0.,4.8,3.,4.8,1.,4.8,0.,4.8
1981-08-29 00:26:05.360 ,5,0,0.,4.8,1.,4.8,0.,4.8,0.,4.8
1981-08-29 00:26:10.160 ,5,0,0.,4.8,2.,4.8,0.,4.8,0.,4.8
1981-08-29 00:26:14.960 ,5,0,0.,4.8,1.,4.8,0.,4.8,0.,4.8
1981-08-29 00:26:19.760 ,5,0,0.,4.8,1.,4.8,0.,4.8,0.,4.8
1981-08-29 00:26:24.560 ,6,0,0.,4.8,3.,4.8,0.,4.8,0.,4.8
1981-08-29 00:26:29.360 ,6,0,0.,4.8,2.,4.8,0.,4.8,0.,4.8
1981-08-29 00:26:34.160 ,6,0,0.,4.8,0.,4.8,0.,4.8,0.,4.8
1981-08-29 00:26:38.960 ,6,0,0.,4.8,1.,4.8,0.,4.8,0.,4.8
1981-08-29 00:26:43.760 ,6,0,0.,4.8,2.,4.8,0.,4.8,0.,4.8
1981-08-29 00:26:48.560 ,7,0,0.,4.8,1.,4.8,0.,4.8,0.,4.8
1981-08-29 00:26:53.360 ,7,0,0.,4.8,2.,4.8,1.,4.8,0.,4.8
1981-08-29 00:26:58.160 ,7,0,0.,4.8,0.,4.8,1.,4.8,0.,4.8
1981-08-29 00:27:02.960 ,7,0,0.,4.8,1.,4.8,0.,4.8,0.,4.8
1981-08-29 00:27:07.760 ,7,0,0.,4.8,1.,4.8,1.,4.8,0.,4.8
1981-08-29 00:27:12.560 ,7,0,0.,4.8,2.,4.8,0.,4.8,0.,4.8
1981-08-29 00:27:17.360 ,7,0,0.,4.8,0.,4.8,0.,4.8,0.,4.8
1981-08-29 00:27:22.160 ,7,0,0.,4.8,0.,4.8,0.,4.8,0.,4.8
1981-08-29 00:27:26.960 ,7,0,0.,4.8,0.,4.8,1.,4.8,0.,4.8
1981-08-29 00:27:31.760 ,7,0,0.,4.8,1.,4.8,0.,4.8,0.,4.8
1981-08-29 00:27:36.560 ,7,0,0.,4.8,0.,4.8,0.,4.8,0.,4.8
1981-08-29 00:27:41.360 ,7,0,0.,4.8,0.,4.8,0.,4.8,0.,4.8
1981-08-29 00:27:46.160 ,7,0,0.,4.8,0.,4.8,0.,4.8,0.,4.8
1981-08-29 00:27:50.960 ,7,0,0.,4.8,1.,4.8,0.,4.8,0.,4.8
1981-08-29 00:27:55.760 ,7,0,0.,4.8,0.,4.8,0.,4.8,0.,4.8
1981-08-29 00:28:00.560 ,6,0,0.,4.8,1.,4.8,0.,4.8,0.,4.8
1981-08-29 00:28:05.360 ,6,0,0.,4.8,0.,4.8,0.,4.8,0.,4.8
1981-08-29 00:28:10.160 ,6,0,0.,4.8,0.,4.8,0.,4.8,0.,4.8
1981-08-29 00:28:14.960 ,6,0,0.,4.8,3.,4.8,0.,4.8,0.,4.8
1981-08-29 00:28:19.760 ,6,0,0.,4.8,2.,4.8,0.,4.8,0.,4.8
1981-08-29 00:28:24.560 ,6,0,0.,4.8,2.,4.8,0.,4.8,0.,4.8
1981-08-29 00:28:29.360 ,6,0,0.,4.8,3.,4.8,2.,4.8,0.,4.8
1981-08-29 00:28:34.160 ,6,0,0.,4.8,0.,4.8,0.,4.8,0.,4.8
1981-08-29 00:28:38.960 ,6,0,0.,4.8,3.,4.8,1.,4.8,0.,4.8
1981-08-29 00:28:43.760 ,6,0,0.,4.8,3.,4.8,0.,4.8,0.,4.8
1981-08-29 00:28:48.560 ,5,0,0.,4.8,2.,4.8,2.,4.8,0.,4.8
1981-08-29 00:28:53.360 ,5,0,0.,4.8,3.,4.8,0.,4.8,0.,4.8
1981-08-29 00:28:58.160 ,5,0,0.,4.8,1.,4.8,0.,4.8,0.,4.8
1981-08-29 00:29:02.960 ,5,0,0.,4.8,0.,4.8,0.,4.8,0.,4.8
1981-08-29 00:29:07.760 ,5,0,0.,4.8,0.,4.8,0.,4.8,0.,4.8
1981-08-29 00:29:12.560 ,5,0,0.,4.8,3.,4.8,1.,4.8,0.,4.8
1981-08-29 00:29:17.360 ,5,0,0.,4.8,0.,4.8,0.,4.8,0.,4.8
1981-08-29 00:29:22.160 ,5,0,0.,4.8,1.,4.8,1.,4.8,0.,4.8
1981-08-29 00:29:26.960 ,5,0,0.,4.8,0.,4.8,0.,4.8,0.,4.8
1981-08-29 00:29:31.760 ,5,0,0.,4.8,3.,4.8,0.,4.8,0.,4.8
1981-08-29 00:29:36.560 ,4,0,0.,4.8,3.,4.8,0.,4.8,0.,4.8
1981-08-29 00:29:41.360 ,4,0,0.,4.8,2.,4.8,1.,4.8,0.,4.8
1981-08-29 00:29:46.160 ,4,0,0.,4.8,0.,4.8,0.,4.8,0.,4.8
1981-08-29 00:29:50.960 ,4,0,0.,4.8,1.,4.8,0.,4.8,0.,4.8
1981-08-29 00:29:55.760 ,4,0,0.,4.8,2.,4.8,0.,4.8,1.,4.8
1981-08-29 00:30:00.560 ,4,0,0.,4.8,3.,4.8,0.,4.8,0.,4.8
1981-08-29 00:30:05.360 ,4,0,0.,4.8,2.,4.8,0.,4.8,1.,4.8
1981-08-29 00:30:10.160 ,4,0,0.,4.8,1.,4.8,0.,4.8,0.,4.8
1981-08-29 00:30:14.960 ,4,0,0.,4.8,1.,4.8,0.,4.8,0.,4.8
1981-08-29 00:30:19.760 ,4,0,0.,4.8,6.,4.8,0.,4.8,0.,4.8
1981-08-29 00:30:24.560 ,3,0,0.,4.8,2.,4.8,0.,4.8,0.,4.8
1981-08-29 00:30:29.360 ,3,0,0.,4.8,2.,4.8,0.,4.8,0.,4.8
1981-08-29 00:30:34.160 ,3,0,0.,4.8,1.,4.8,0.,4.8,0.,4.8
1981-08-29 00:30:38.960 ,3,0,0.,4.8,0.,4.8,0.,4.8,0.,4.8
1981-08-29 00:30:43.760 ,3,0,0.,4.8,0.,4.8,0.,4.8,0.,4.8
1981-08-29 00:30:48.560 ,3,0,0.,4.8,1.,4.8,0.,4.8,0.,4.8
1981-08-29 00:30:53.360 ,3,0,0.,4.8,0.,4.8,0.,4.8,0.,4.8
1981-08-29 00:30:58.160 ,3,0,0.,4.8,3.,4.8,0.,4.8,1.,4.8
1981-08-29 00:31:02.960 ,3,0,0.,4.8,2.,4.8,0.,4.8,0.,4.8
1981-08-29 00:31:07.760 ,3,0,0.,4.8,0.,4.8,1.,4.8,0.,4.8
1981-08-29 00:31:12.560 ,2,0,0.,4.8,0.,4.8,0.,4.8,0.,4.8
1981-08-29 00:31:17.360 ,2,0,0.,4.8,2.,4.8,0.,4.8,0.,4.8
1981-08-29 00:31:22.160 ,2,0,0.,4.8,3.,4.8,0.,4.8,1.,4.8
1981-08-29 00:31:26.960 ,2,0,0.,4.8,2.,4.8,0.,4.8,0.,4.8
1981-08-29 00:31:31.760 ,2,0,0.,4.8,2.,4.8,0.,4.8,0.,4.8
1981-08-29 00:31:36.560 ,2,0,0.,4.8,1.,4.8,0.,4.8,0.,4.8
1981-08-29 00:31:41.360 ,2,0,0.,4.8,2.,4.8,0.,4.8,0.,4.8
1981-08-29 00:31:46.160 ,2,0,0.,4.8,2.,4.8,0.,4.8,0.,4.8
1981-08-29 00:31:50.960 ,2,0,0.,4.8,3.,4.8,1.,4.8,0.,4.8
1981-08-29 00:31:55.760 ,2,0,0.,4.8,6.,4.8,1.,4.8,0.,4.8
1981-08-29 00:32:00.560 ,1,0,0.,4.8,1.,4.8,0.,4.8,0.,4.8
1981-08-29 00:32:05.360 ,1,0,0.,4.8,2.,4.8,0.,4.8,1.,4.8
1981-08-29 00:32:10.160 ,1,0,0.,4.8,0.,4.8,1.,4.8,1.,4.8
1981-08-29 00:32:14.960 ,1,0,0.,4.8,2.,4.8,1.,4.8,1.,4.8
1981-08-29 00:32:19.760 ,1,0,0.,4.8,3.,4.8,0.,4.8,0.,4.8
1981-08-29 00:32:24.560 ,1,0,0.,4.8,3.,4.8,0.,4.8,0.,4.8
1981-08-29 00:32:29.360 ,1,0,0.,4.8,2.,4.8,0.,4.8,0.,4.8
1981-08-29 00:32:34.160 ,1,0,0.,4.8,3.,4.8,1.,4.8,0.,4.8
1981-08-29 00:32:38.960 ,1,0,0.,4.8,2.,4.8,1.,4.8,0.,4.8
1981-08-29 00:32:43.760 ,1,0,0.,4.8,1.,4.8,0.,4.8,0.,4.8
1981-08-29 00:32:48.560 ,0,0,0.,4.8,5.,4.8,0.,4.8,0.,4.8
1981-08-29 00:32:53.360 ,0,0,0.,4.8,2.,4.8,0.,4.8,0.,4.8
1981-08-29 00:32:58.160 ,0,0,0.,4.8,2.,4.8,1.,4.8,1.,4.8
1981-08-29 00:33:02.960 ,0,0,0.,4.8,0.,4.8,0.,4.8,0.,4.8
1981-08-29 00:33:07.760 ,0,0,0.,4.8,0.,4.8,0.,4.8,1.,4.8
1981-08-29 00:33:12.560 ,0,0,0.,4.8,4.,4.8,0.,4.8,0.,4.8
1981-08-29 00:33:17.360 ,0,0,0.,4.8,2.,4.8,0.,4.8,1.,4.8